| time (UTC) | temp F | wind direction | speed knots | gust knots | rain 1hr in | rain 24hr in | rain mn in | humidity % | barometer mb |
| 20260505123009 | 52 | 280 | 0.0 | 0.0 | 0.01 | 0.20 | 0.07 | 96 | 1014.7 |
| 20260505121514 | 52 | 280 | 0.0 | 0.0 | 0.01 | 0.19 | 0.06 | 96 | 1014.8 |
| 20260505120022 | 52 | 280 | 0.0 | 0.0 | 0.01 | 0.19 | 0.06 | 96 | 1014.8 |
| 20260505114523 | 52 | 280 | 0.0 | 0.0 | 0.01 | 0.19 | 0.06 | 96 | 1014.6 |
| 20260505113007 | 52 | 280 | 0.0 | 0.0 | 0.02 | 0.19 | 0.06 | 96 | 1014.6 |
| 20260505111513 | 52 | 280 | 0.0 | 0.0 | 0.01 | 0.18 | 0.05 | 96 | 1014.8 |
| 20260505101509 | 52 | 196 | 0.0 | 0.0 | 0.01 | 0.17 | 0.04 | 96 | 1015.1 |
| 20260505100017 | 52 | 196 | 0.0 | 0.0 | 0.01 | 0.17 | 0.04 | 96 | 1015.1 |
| 20260505094517 | 52 | 196 | 0.0 | 0.0 | 0.01 | 0.17 | 0.04 | 96 | 1015.0 |
| 20260505093022 | 52 | 196 | 0.0 | 0.0 | 0.01 | 0.16 | 0.03 | 96 | 1014.9 |
| 20260505091525 | 52 | 196 | 0.0 | 0.0 | 0.01 | 0.16 | 0.03 | 96 | 1015.1 |
| 20260505090013 | 52 | 196 | 0.0 | 0.9 | 0.01 | 0.16 | 0.03 | 96 | 1015.1 |
| 20260505084519 | 52 | 209 | 0.0 | 0.0 | 0.02 | 0.16 | 0.03 | 96 | 1015.2 |
| 20260505083019 | 52 | 209 | 0.0 | 0.0 | 0.01 | 0.15 | 0.02 | 96 | 1015.5 |
| 20260505081539 | 52 | 209 | 0.0 | 0.9 | 0.01 | 0.15 | 0.02 | 96 | 1015.5 |
| 20260505080028 | 52 | 213 | 0.0 | 0.0 | 0.02 | 0.15 | 0.02 | 96 | 1015.5 |
| 20260505074512 | 52 | 213 | 0.0 | 0.0 | 0.01 | 0.14 | 0.01 | 95 | 1015.5 |
| 20260505073018 | 52 | 213 | 0.0 | 0.0 | 0.02 | 0.14 | 0.01 | 95 | 1015.6 |
| 20260505071542 | 52 | 213 | 0.0 | 0.9 | 0.02 | 0.14 | 0.01 | 95 | 1015.7 |
| 20260505070025 | 52 | 213 | 0.0 | 0.9 | 0.02 | 0.13 | 0.00 | 95 | 1015.9 |
| 20260505064527 | 52 | 216 | 0.0 | 0.0 | 0.02 | 0.13 | 0.13 | 96 | 1015.8 |
| 20260505063015 | 52 | 216 | 0.0 | 0.0 | 0.01 | 0.12 | 0.12 | 96 | 1015.9 |
| 20260505061518 | 52 | 216 | 0.0 | 0.0 | 0.02 | 0.12 | 0.12 | 95 | 1015.7 |
| 20260505060024 | 52 | 204 | 0.0 | 0.0 | 0.01 | 0.11 | 0.11 | 95 | 1015.9 |
| 20260505054541 | 52 | 200 | 0.0 | 0.0 | 0.01 | 0.11 | 0.11 | 95 | 1015.8 |
| 20260505053017 | 52 | 200 | 0.0 | 0.0 | 0.01 | 0.11 | 0.11 | 95 | 1015.8 |
| 20260505051532 | 52 | 200 | 0.0 | 0.0 | 0.01 | 0.10 | 0.10 | 95 | 1016.1 |
| 20260505041516 | 53 | 201 | 0.0 | 0.0 | 0.01 | 0.09 | 0.09 | 94 | 1016.3 |
| 20260505040032 | 53 | 201 | 0.0 | 0.0 | 0.02 | 0.09 | 0.09 | 94 | 1016.7 |
| 20260505034522 | 53 | 201 | 0.0 | 0.9 | 0.01 | 0.08 | 0.08 | 94 | 1016.6 |
| 20260505033028 | 53 | 201 | 0.0 | 0.9 | 0.02 | 0.08 | 0.08 | 94 | 1015.5 |
| 20260505031528 | 53 | 201 | 0.0 | 0.9 | 0.02 | 0.08 | 0.08 | 93 | 1015.0 |
| 20260505030029 | 53 | 277 | 0.0 | 0.9 | 0.01 | 0.07 | 0.07 | 93 | 1015.1 |
| 20260505024518 | 53 | 259 | 0.0 | 0.9 | 0.02 | 0.07 | 0.07 | 93 | 1015.2 |
| 20260505023024 | 53 | 109 | 0.0 | 2.6 | 0.01 | 0.06 | 0.06 | 92 | 1015.4 |
| 20260505021528 | 53 | 300 | 0.0 | 0.0 | 0.01 | 0.06 | 0.06 | 92 | 1015.5 |
| 20260505020026 | 54 | 300 | 0.0 | 0.9 | 0.02 | 0.06 | 0.06 | 92 | 1015.6 |
| 20260505014517 | 54 | 286 | 0.0 | 0.0 | 0.01 | 0.05 | 0.05 | 91 | 1015.7 |
| 20260505013021 | 54 | 286 | 0.0 | 0.0 | 0.01 | 0.05 | 0.05 | 91 | 1016.0 |
| 20260505011523 | 54 | 286 | 0.0 | 0.0 | 0.02 | 0.05 | 0.05 | 90 | 1016.1 |
| 20260505010026 | 55 | 286 | 0.0 | 0.0 | 0.01 | 0.04 | 0.04 | 91 | 1016.2 |
| 20260505004526 | 55 | 286 | 0.0 | 0.0 | 0.01 | 0.04 | 0.04 | 90 | 1016.0 |
| 20260505003020 | 55 | 286 | 0.0 | 0.0 | 0.02 | 0.04 | 0.04 | 90 | 1016.0 |
| 20260505001524 | 55 | 286 | 0.0 | 0.0 | 0.01 | 0.03 | 0.03 | 88 | 1016.0 |
| 20260505000029 | 55 | 286 | 0.0 | 1.7 | 0.02 | 0.03 | 0.03 | 84 | 1016.0 |
| 20260504234525 | 56 | 276 | 0.9 | 3.5 | 0.03 | 0.03 | 0.03 | 83 | 1015.9 |
| 20260504233028 | 56 | 287 | 0.0 | 1.7 | 0.02 | 0.02 | 0.02 | 84 | 1015.9 |
| 20260504231520 | 57 | 299 | 0.0 | 0.9 | 0.02 | 0.02 | 0.02 | 85 | 1015.9 |
| 20260504230026 | 58 | 301 | 0.0 | 2.6 | 0.01 | 0.01 | 0.01 | 83 | 1015.9 |
| 20260504224526 | 59 | 288 | 0.0 | 7.8 | 0.00 | 0.00 | 0.00 | 79 | 1015.8 |
| 20260504223011 | 60 | 128 | 0.0 | 7.0 | 0.00 | 0.00 | 0.00 | 73 | 1015.9 |
| 20260504221522 | 60 | 124 | 0.0 | 1.7 | 0.00 | 0.00 | 0.00 | 72 | 1016.1 |
| 20260504220025 | 61 | 128 | 0.9 | 2.6 | 0.00 | 0.00 | 0.00 | 68 | 1015.9 |
| 20260504214527 | 62 | 274 | 0.9 | 6.1 | 0.00 | 0.00 | 0.00 | 65 | 1015.7 |
| 20260504213026 | 62 | 176 | 0.0 | 8.7 | 0.00 | 0.00 | 0.00 | 64 | 1015.6 |
| 20260504211516 | 63 | 163 | 0.9 | 6.1 | 0.00 | 0.00 | 0.00 | 62 | 1015.7 |
| 20260504210023 | 64 | 138 | 0.9 | 7.8 | 0.00 | 0.00 | 0.00 | 59 | 1015.8 |
| 20260504204526 | 64 | 125 | 0.0 | 5.2 | 0.00 | 0.00 | 0.00 | 60 | 1015.8 |
| 20260504203029 | 64 | 155 | 0.0 | 3.5 | 0.00 | 0.00 | 0.00 | 58 | 1015.8 |
| 20260504201514 | 64 | 284 | 0.9 | 3.5 | 0.00 | 0.00 | 0.00 | 57 | 1015.7 |
| 20260504200029 | 64 | 142 | 0.9 | 3.5 | 0.00 | 0.00 | 0.00 | 56 | 1015.7 |
| 20260504194504 | 63 | 215 | 0.0 | 3.5 | 0.00 | 0.00 | 0.00 | 59 | 1015.9 |
| 20260504193007 | 63 | 150 | 0.0 | 1.7 | 0.00 | 0.00 | 0.00 | 58 | 1015.9 |
| 20260504191525 | 62 | 123 | 0.9 | 3.5 | 0.00 | 0.00 | 0.00 | 59 | 1015.9 |
| 20260504190014 | 62 | 130 | 0.0 | 2.6 | 0.00 | 0.00 | 0.00 | 62 | 1016.0 |
| 20260504184521 | 61 | 195 | 0.0 | 2.6 | 0.00 | 0.00 | 0.00 | 65 | 1016.1 |
| 20260504183005 | 61 | 281 | 0.0 | 7.8 | 0.00 | 0.00 | 0.00 | 65 | 1016.0 |
| 20260504181509 | 61 | 251 | 0.0 | 2.6 | 0.00 | 0.00 | 0.00 | 69 | 1015.9 |
| 20260504180019 | 60 | 273 | 0.0 | 6.1 | 0.00 | 0.00 | 0.00 | 68 | 1015.9 |
| 20260504174522 | 59 | 52 | 0.0 | 0.9 | 0.00 | 0.00 | 0.00 | 70 | 1016.0 |
| 20260504173023 | 59 | 264 | 0.0 | 1.7 | 0.00 | 0.00 | 0.00 | 74 | 1016.0 |
| 20260504171504 | 58 | 134 | 0.0 | 2.6 | 0.00 | 0.00 | 0.00 | 76 | 1016.0 |